Location: T�chigga el Be�da
(16.4766°N, 9.3887°W)
Time: 14:16:43
(UTC+00:00)

Cosmos 1570 Rocket - Pass Details

Date: 27 February 2020
Orbit: 762 x 789 km, 74.1° (Epoch: 04 April)

Event Time Altitude Azimuth Distance (km) Brightness Sun altitude
Rises 19:11:44 0° 189° (S) 3,211 7.4 -7.4°
Reaches altitude 10° 19:14:06 10° 188° (S) 2,287 6.7 -8.0°
Maximum altitude 19:19:16 77° 103° (ESE) 784 3.9 -9.2°
Drops below altitude 10° 19:24:29 10° 17° (NNE) 2,300 6.3 -10.5°
Sets 19:26:51 0° 16° (NNE) 3,230 7.0 -11.1°
